• In Latvia
  • List of Countries
  • For 7 days
  • Water Temperature
  • Satellite Maps
  • Weather Map
  • Weather Widgets
  • user-avatar
    Login

    Hourly Weather Escaldes-Engordany

    Today, 6 December, Tuesday

    Time Temperature Precipitation Wind Pressure Humidity
    00:00 +2°C° 0 mm 1 mps 641 mmHg 94%
    01:00 +2°C° 0 mm 1 mps 641 mmHg 93%
    02:00 +2°C° 0 mm 1 mps 641 mmHg 92%
    03:00 +2°C° 0 mm 1 mps 641 mmHg 92%
    04:00 +1°C° 0 mm 1 mps 641 mmHg 90%
    05:00 +1°C° 0 mm 1 mps 641 mmHg 89%
    06:00 +1°C° 0 mm 1 mps 641 mmHg 87%
    07:00 +2°C° 0 mm 1 mps 642 mmHg 81%
    08:00 +4°C° 0 mm 1 mps 643 mmHg 76%
    09:00 +5°C° 0 mm 1 mps 644 mmHg 71%
    10:00 +7°C° 0 mm 1 mps 645 mmHg 67%
    11:00 +8°C° 0 mm 1 mps 645 mmHg 63%
    12:00 +9°C° 0 mm 1 mps 646 mmHg 60%
    13:00 +9°C° 0 mm 1 mps 645 mmHg 64%
    14:00 +8°C° 0 mm 1 mps 645 mmHg 69%
    15:00 +7°C° 0 mm 1 mps 645 mmHg 74%
    16:00 +5°C° 0 mm 1 mps 644 mmHg 79%
    17:00 +3°C° 0 mm 1 mps 643 mmHg 83%
    18:00 +1°C° 0 mm 1 mps 643 mmHg 88%
    19:00 +1°C° 0 mm 1 mps 643 mmHg 85%
    20:00 +1°C° 0 mm 1 mps 643 mmHg 81%
    21:00 +1°C° 0 mm 1 mps 643 mmHg 78%
    22:00 0°C° 0 mm 1 mps 643 mmHg 75%
    23:00 0°C° 0 mm 1 mps 643 mmHg 71%

    Tomorrow, 7 December, Wednesday

    Time Temperature Precipitation Wind Pressure Humidity
    00:00 0°C° 0 mm 1 mps 643 mmHg 68%
    01:00 0°C° 0 mm 1 mps 643 mmHg 67%
    02:00 -1°C° 0 mm 1 mps 643 mmHg 66%
    03:00 -1°C° 0 mm 1 mps 643 mmHg 65%
    04:00 -1°C° 0 mm 1 mps 643 mmHg 64%
    05:00 -2°C° 0 mm 0 mps 642 mmHg 64%
    06:00 -2°C° 0 mm 0 mps 642 mmHg 64%
    07:00 0°C° 0 mm 0 mps 644 mmHg 62%
    08:00 +3°C° 0 mm 1 mps 645 mmHg 59%
    09:00 +5°C° 0 mm 1 mps 646 mmHg 57%
    10:00 +6°C° 0 mm 1 mps 646 mmHg 55%
    11:00 +8°C° 0 mm 1 mps 647 mmHg 54%
    12:00 +9°C° 0 mm 1 mps 647 mmHg 52%
    13:00 +8°C° 0 mm 1 mps 647 mmHg 58%
    14:00 +8°C° 0 mm 1 mps 647 mmHg 64%
    15:00 +7°C° 0 mm 1 mps 646 mmHg 70%
    16:00 +5°C° 0 mm 1 mps 646 mmHg 76%
    17:00 +3°C° 0 mm 1 mps 645 mmHg 81%
    18:00 0°C° 0 mm 1 mps 645 mmHg 86%
    19:00 0°C° 0 mm 1 mps 645 mmHg 85%
    20:00 0°C° 0 mm 1 mps 645 mmHg 85%
    21:00 0°C° 0 mm 1 mps 645 mmHg 84%
    22:00 0°C° 0 mm 1 mps 645 mmHg 83%
    23:00 0°C° 0 mm 1 mps 645 mmHg 83%

    Day after tomorrow, 8 December, Thursday

    Time Temperature Precipitation Wind Pressure Humidity
    00:00 0°C° 0 mm 1 mps 645 mmHg 82%
    01:00 0°C° 0 mm 1 mps 645 mmHg 81%
    02:00 0°C° 0 mm 1 mps 645 mmHg 79%
    03:00 0°C° 0 mm 1 mps 645 mmHg 77%
    04:00 0°C° 0 mm 1 mps 645 mmHg 75%
    05:00 0°C° 0 mm 1 mps 645 mmHg 72%
    06:00 0°C° 0 mm 1 mps 645 mmHg 70%
    07:00 +1°C° 0 mm 1 mps 646 mmHg 65%
    08:00 +3°C° 0 mm 1 mps 647 mmHg 59%
    09:00 +5°C° 0 mm 1 mps 648 mmHg 54%
    10:00 +7°C° 0 mm 1 mps 648 mmHg 51%
    11:00 +8°C° 0 mm 1 mps 649 mmHg 48%
    12:00 +10°C° 0 mm 1 mps 649 mmHg 45%
    13:00 +9°C° 0 mm 1 mps 649 mmHg 51%
    14:00 +8°C° 0 mm 1 mps 648 mmHg 57%
    15:00 +7°C° 0 mm 1 mps 648 mmHg 63%
    16:00 +5°C° 0 mm 1 mps 647 mmHg 66%
    17:00 +3°C° 0 mm 1 mps 646 mmHg 69%
    18:00 +1°C° 0 mm 1 mps 646 mmHg 71%
    19:00 +1°C° 0 mm 1 mps 646 mmHg 67%
    20:00 +1°C° 0 mm 1 mps 646 mmHg 63%
    21:00 +1°C° 0 mm 1 mps 646 mmHg 58%
    22:00 +1°C° 0 mm 1 mps 646 mmHg 57%
    23:00 +1°C° 0 mm 1 mps 646 mmHg 56%

    9 December, Friday

    Time Temperature Precipitation Wind Pressure Humidity
    00:00 +1°C° 0 mm 1 mps 646 mmHg 55%
    01:00 0°C° 0 mm 1 mps 645 mmHg 54%
    02:00 0°C° 0 mm 1 mps 645 mmHg 53%
    03:00 0°C° 0 mm 1 mps 645 mmHg 52%
    04:00 0°C° 0 mm 1 mps 645 mmHg 51%
    05:00 0°C° 0 mm 1 mps 645 mmHg 50%
    06:00 0°C° 0 mm 1 mps 645 mmHg 49%
    07:00 +2°C° 0 mm 1 mps 645 mmHg 47%
    08:00 +4°C° 0 mm 1 mps 646 mmHg 45%
    09:00 +6°C° 0 mm 1 mps 647 mmHg 43%
    10:00 +7°C° 0 mm 1 mps 647 mmHg 42%
    11:00 +9°C° 0 mm 1 mps 648 mmHg 42%
    12:00 +11°C° 0 mm 1 mps 648 mmHg 41%
    13:00 +10°C° 0 mm 1 mps 647 mmHg 49%
    14:00 +9°C° 0 mm 1 mps 647 mmHg 56%
    15:00 +8°C° 0 mm 1 mps 646 mmHg 63%
    16:00 +6°C° 0 mm 1 mps 645 mmHg 66%
    17:00 +4°C° 0 mm 1 mps 645 mmHg 69%
    18:00 +2°C° 0 mm 1 mps 644 mmHg 72%
    19:00 +2°C° 0 mm 1 mps 644 mmHg 70%
    20:00 +1°C° 0 mm 1 mps 644 mmHg 67%
    21:00 +1°C° 0 mm 1 mps 644 mmHg 65%
    22:00 +1°C° 0 mm 1 mps 644 mmHg 63%
    23:00 +1°C° 0 mm 1 mps 643 mmHg 61%

    10 December, Saturday

    Time Temperature Precipitation Wind Pressure Humidity
    00:00 +1°C° 0 mm 1 mps 643 mmHg 59%
    01:00 +1°C° 0 mm 1 mps 643 mmHg 59%
    02:00 +1°C° 0 mm 1 mps 643 mmHg 60%
    03:00 +1°C° 0 mm 1 mps 642 mmHg 60%
    04:00 +1°C° 0 mm 1 mps 642 mmHg 62%
    05:00 +1°C° 0 mm 1 mps 642 mmHg 64%
    06:00 +1°C° 0 mm 1 mps 642 mmHg 66%
    07:00 +3°C° 0 mm 1 mps 643 mmHg 63%
    08:00 +4°C° 0 mm 1 mps 643 mmHg 61%
    09:00 +6°C° 0 mm 1 mps 644 mmHg 59%
    10:00 +7°C° 0 mm 1 mps 645 mmHg 57%
    11:00 +9°C° 0 mm 1 mps 645 mmHg 55%
    12:00 +11°C° 0 mm 1 mps 645 mmHg 53%
    13:00 +10°C° 0 mm 1 mps 645 mmHg 60%
    14:00 +9°C° 0 mm 1 mps 644 mmHg 66%
    15:00 +8°C° 0 mm 1 mps 643 mmHg 73%
    16:00 +6°C° 0 mm 1 mps 643 mmHg 78%
    17:00 +4°C° 0 mm 1 mps 642 mmHg 83%
    18:00 +1°C° 0 mm 1 mps 641 mmHg 88%
    19:00 +1°C° 0 mm 1 mps 641 mmHg 87%
    20:00 +1°C° 0 mm 1 mps 641 mmHg 87%
    21:00 +1°C° 0 mm 1 mps 641 mmHg 87%
    22:00 +1°C° 0 mm 1 mps 641 mmHg 86%
    23:00 +1°C° 0 mm 1 mps 641 mmHg 85%

    11 December, Sunday

    Time Temperature Precipitation Wind Pressure Humidity
    00:00 +1°C° 0 mm 1 mps 641 mmHg 84%
    01:00 +1°C° 0 mm 1 mps 640 mmHg 81%
    02:00 +1°C° 0 mm 1 mps 640 mmHg 77%
    03:00 +1°C° 0 mm 1 mps 640 mmHg 73%
    04:00 +1°C° 0 mm 1 mps 640 mmHg 70%
    05:00 +1°C° 0 mm 1 mps 640 mmHg 66%
    06:00 -1°C° 0 mm 2 mps 640 mmHg 62%
    07:00 +1°C° 0 mm 2 mps 641 mmHg 59%
    08:00 +3°C° 0 mm 2 mps 642 mmHg 56%
    09:00 +4°C° 0 mm 2 mps 643 mmHg 53%
    10:00 +7°C° 0 mm 1 mps 644 mmHg 50%
    11:00 +9°C° 0 mm 1 mps 644 mmHg 46%
    12:00 +10°C° 0 mm 1 mps 644 mmHg 43%
    13:00 +9°C° 0 mm 1 mps 644 mmHg 49%
    14:00 +9°C° 0 mm 1 mps 643 mmHg 56%
    15:00 +8°C° 0 mm 1 mps 642 mmHg 62%
    16:00 +6°C° 0 mm 1 mps 642 mmHg 66%
    17:00 +3°C° 0 mm 2 mps 642 mmHg 71%
    18:00 +2°C° 0 mm 2 mps 641 mmHg 76%
    19:00 +2°C° 0 mm 2 mps 641 mmHg 77%
    20:00 +2°C° 0 mm 2 mps 641 mmHg 78%
    21:00 +2°C° 0 mm 2 mps 642 mmHg 79%
    22:00 +2°C° 0 mm 2 mps 641 mmHg 81%
    23:00 +2°C° 0 mm 2 mps 641 mmHg 84%
    Show more